Preview of NWS' New Version of Forecast
This preview is not operational and should not be used for support decisions.

Regional Weather Roundup (RWR)

Issued by National Weather Service (NWS)

                            
000
ASUS46 KSEW 171110
RWRWA 

WASHINGTON REGIONAL WEATHER ROUNDUP
NATIONAL WEATHER SERVICE SEATTLE WA
400 AM PDT MON JUN 17 2019

NOTE:"FAIR" INDICATES FEW OR NO CLOUDS BELOW 12,000 FEET WITH NO 
SIGNIFICANT WEATHER AND/OR OBSTRUCTIONS TO VISIBILITY.

WAZ507-509-555>559-171200-
SEATTLE, TACOMA, EVERETT, AND VICINITY
  
CITY           SKY/WX    TMP DP  RH WIND       PRES   REMARKS
EVERETT        CLOUDY    54  52  93 N7        30.09R                  
BOEING FIELD   PTCLDY    58  52  80 CALM      30.08R                  
RENTON         CLOUDY    60  54  80 S6        30.09R                  
SEATAC AIRPORT PTCLDY    56  52  86 S5        30.09R                  
JBLM-MCCHORD   CLOUDY    55  55 100 SW3       30.09S                  
PUYALLUP       CLOUDY    54  54 100 CALM      30.10R                  
BREMERTON      CLOUDY    53  52  96 SW5       30.09R                  
JBLM-FT LEWIS  CLOUDY    55  55 100 CALM      30.09R                  
TACOMA NARROWS CLOUDY    54  52  93 SW6       30.10R                  
$$
 
WAZ001-503-506-510-514-515-171200-
NORTH INTERIOR
  
CITY           SKY/WX    TMP DP  RH WIND       PRES   REMARKS
BELLINGHAM     CLOUDY    57  51  80 S9G17     30.04R                  
FRIDAY HARBOR  CLEAR     58  47  66 CALM      30.06R                  
EASTSOUND      CLEAR     55  52  88 S8G15     30.03S                  
PORT ANGELES   PTCLDY    51  50  96 W10       30.08R                  
EDIZ HOOK      FAIR      52  50  95 W15G21    30.07R                  
PORT TOWNSEND  MOCLDY    46  46 100 CALM      30.08R                  
NAS WHIDBEY    MOCLDY    56  50  80 SW8       30.11R                  
ARLINGTON      CLEAR     53  50  89 N7        30.09S                  
BURLINGTON     CLOUDY    55  52  88 SE7       30.08S                  
$$
 
WAZ020-022-039-040-504-511-512-171200-
SOUTHWEST INTERIOR
  
CITY           SKY/WX    TMP DP  RH WIND       PRES   REMARKS
SHELTON        CLOUDY    55  52  89 SW8       30.07R                  
OLYMPIA        CLOUDY    53  51  93 S3        30.09S                  
CHEHALIS       CLOUDY    57  54  88 SW5       30.10S                  
KELSO          CLOUDY    57  52  83 NW5       30.11S                  
VANCOUVER      CLEAR     58  51  78 CALM      30.09S                  
SCAPPOOSE, OR  MOCLDY    51  50  96 W3        30.09R                  
PORTLAND, OR   PTCLDY    59  51  75 N3        30.09S                  
$$
 
WAZ021-516-517-171200-
WASHINGTON COAST
  
CITY           SKY/WX    TMP DP  RH WIND       PRES   REMARKS
FORKS          CLOUDY    52  51  97 CALM      30.12S                  
HOQUIAM        CLOUDY    52  52 100 NW6       30.11S FOG              
ASTORIA, OR    CLOUDY    54  52  93 W6        30.12S FOG              
$$
 
WAZ019-023-024-040-567>569-171200-
CASCADE MOUNTAINS AND COLUMBIA GORGE
  
CITY           SKY/WX    TMP DP  RH WIND       PRES   REMARKS
STAMPEDE PASS  FOG       49  46  90 VRB5      30.10S VSB 1/4          
TROUTDALE, OR  CLOUDY    59  52  77 NW5       30.09S                  
HOOD RIVER, OR MOSUNNY   63  52  67 NW12      30.00R                  
THE DALLES, OR PTCLDY    64  52  64 NW22G29   29.94R                  
$$

WAZ026-027-041>044-520-521-171200-
EAST SLOPES
  
CITY           SKY/WX    TMP DP  RH WIND       PRES   REMARKS
OMAK           PTCLDY    62  50  64 N12       29.91R                  
WENATCHEE      CLEAR     67  47  48 W7        29.92S                  
ELLENSBURG     CLEAR     62  48  60 NW20G28   29.94F                  
YAKIMA         PTCLDY    68  45  43 N10       29.93S                  
SUNNYSIDE ARPT MOSUNNY   57  52  83 CALM      29.90                   
YAKIMA TC      PTSUNNY   62  45  52 E7        29.93R                  
$$

WAZ028-034-035-171200-
COLUMBIA BASIN
  
CITY           SKY/WX    TMP DP  RH WIND       PRES   REMARKS
EPHRATA        CLEAR     69  48  47 NW17      29.87R                  
MOSES LAKE     CLEAR     67  49  52 NW5       29.88S                  
PASCO          PTCLDY    68  54  60 SW3       29.90R                  
RICHLAND ARPT  MOSUNNY   65  50  58 CALM      29.89S                  
HERMISTON, OR  PTCLDY    67  50  54 SW10      29.91R                  
$$

WAZ036>038-171200-
NORTHEAST WASHINGTON
  
CITY           SKY/WX    TMP DP  RH WIND       PRES   REMARKS
SPOKANE GEIGER MOCLDY    62  49  62 S7        29.93R                  
SPOKANE FELTS  PTCLDY    61  53  75 CALM      29.92R                  
FAIRCHILD AFB  PTCLDY    59  49  68 S8        29.93R                  
COEURDALENE,ID PTCLDY    58  52  80 NE5       29.93R                  
DEER PARK      MOCLDY    54  49  83 CALM      29.92S                  
$$

WAZ029>033-171200-
SOUTHEAST WASHINGTON
  
CITY           SKY/WX    TMP DP  RH WIND       PRES   REMARKS
PULLMAN        PTCLDY    56  49  77 CALM      29.97R                  
LEWISTON, ID   PTCLDY    64  53  67 CALM      29.90R                  
WALLA WALLA    MOCLDY    67  49  52 S9        29.93S                  
PENDLETON, OR  PTCLDY    60  48  64 SE7       29.95R                  
$$